AAL3123 KDCA-KORF

Flight info

Callsign AAL3123
Flight time 0h 35m
Altitude 14000
Route AMEEE1 COLIN T291 FAGED CORET STEIN
Aircraft B738/M-SDE2E3FGHIRWXY/LB1

Departure

Time 2026-05-08 02:40
Airport Ronald Reagan Washington National Airport (KDCA)

Arrival

Time 2026-05-08 03:16
Airport Norfolk International Airport (KORF)
Time Latitude Longitude Altitude Speed Heading
2026-05-08 02:08 38.85670 -77.04170 23 ft 0 kts 231°
2026-05-08 02:25 38.85670 -77.04169 23 ft 1 kts 231°
2026-05-08 02:26 38.85681 -77.04153 25 ft 3 kts 231°
2026-05-08 02:26 38.85693 -77.04134 29 ft 3 kts 227°
2026-05-08 02:26 38.85707 -77.04119 28 ft 3 kts 200°
2026-05-08 02:26 38.85726 -77.04115 25 ft 3 kts 170°
2026-05-08 02:27 38.85744 -77.04122 28 ft 3 kts 148°
2026-05-08 02:27 38.85755 -77.04131 27 ft 3 kts 143°
2026-05-08 02:27 38.85770 -77.04146 26 ft 3 kts 143°
2026-05-08 02:27 38.85783 -77.04159 28 ft 4 kts 143°
2026-05-08 02:28 38.85784 -77.04160 28 ft 0 kts 143°
2026-05-08 02:31 38.85783 -77.04159 28 ft 1 kts 142°
2026-05-08 02:31 38.85765 -77.04128 25 ft 5 kts 103°
2026-05-08 02:31 38.85774 -77.04082 28 ft 6 kts 53°
2026-05-08 02:32 38.85797 -77.04054 26 ft 1 kts 33°
2026-05-08 02:32 38.85806 -77.04032 26 ft 7 kts 81°
2026-05-08 02:32 38.85779 -77.03991 25 ft 0 kts 147°
2026-05-08 02:33 38.85778 -77.03991 25 ft 2 kts 147°
2026-05-08 02:33 38.85756 -77.03989 29 ft 0 kts 198°
2026-05-08 02:33 38.85755 -77.03994 26 ft 1 kts 245°
2026-05-08 02:33 38.85760 -77.04004 30 ft 3 kts 310°
2026-05-08 02:34 38.85805 -77.04002 26 ft 10 kts 28°
2026-05-08 02:34 38.85876 -77.03990 25 ft 11 kts 353°
2026-05-08 02:34 38.85948 -77.03998 27 ft 10 kts 338°
2026-05-08 02:34 38.85987 -77.04059 23 ft 4 kts 329°
2026-05-08 02:35 38.86012 -77.04053 23 ft 4 kts 17°
2026-05-08 02:35 38.86038 -77.04043 25 ft 4 kts 18°
2026-05-08 02:35 38.86042 -77.04038 23 ft 0 kts 38°
2026-05-08 02:35 38.86042 -77.04034 23 ft 0 kts 77°
2026-05-08 02:38 38.86042 -77.04033 23 ft 1 kts 77°
2026-05-08 02:39 38.86052 -77.03983 23 ft 7 kts 68°
2026-05-08 02:39 38.86075 -77.03923 25 ft 8 kts 64°
2026-05-08 02:39 38.86058 -77.03868 22 ft 8 kts 165°
2026-05-08 02:39 38.86000 -77.03861 25 ft 11 kts 175°
2026-05-08 02:40 38.85734 -77.03835 25 ft 77 kts 176°
2026-05-08 02:40 38.84953 -77.03758 27 ft 146 kts 177°
2026-05-08 02:40 38.83844 -77.03666 527 ft 165 kts 177°
2026-05-08 02:40 38.82659 -77.03563 1201 ft 184 kts 179°
2026-05-08 02:41 38.81300 -77.03431 1788 ft 204 kts 177°
2026-05-08 02:41 38.79886 -77.03114 2503 ft 210 kts 170°
2026-05-08 02:41 38.78426 -77.02661 2903 ft 228 kts 169°
2026-05-08 02:41 38.76825 -77.02218 3357 ft 245 kts 171°
2026-05-08 02:42 38.75115 -77.01682 3957 ft 260 kts 159°
2026-05-08 02:42 38.73511 -77.00446 4552 ft 277 kts 146°
2026-05-08 02:42 38.71912 -76.98990 5289 ft 286 kts 145°
2026-05-08 02:42 38.70280 -76.97505 6150 ft 290 kts 146°
2026-05-08 02:43 38.68615 -76.96003 6953 ft 295 kts 146°
2026-05-08 02:43 38.66921 -76.94489 7772 ft 299 kts 148°
2026-05-08 02:43 38.65199 -76.92957 8576 ft 304 kts 148°
2026-05-08 02:43 38.63449 -76.91407 9377 ft 309 kts 149°
2026-05-08 02:44 38.61692 -76.89855 10152 ft 313 kts 150°
2026-05-08 02:44 38.59851 -76.88234 10544 ft 333 kts 150°
2026-05-08 02:44 38.57876 -76.86502 10738 ft 357 kts 150°
2026-05-08 02:44 38.55766 -76.84651 10942 ft 378 kts 150°
2026-05-08 02:45 38.53571 -76.82703 11459 ft 388 kts 150°
2026-05-08 02:45 38.51351 -76.80710 12226 ft 390 kts 150°
2026-05-08 02:45 38.49134 -76.78715 12769 ft 390 kts 151°
2026-05-08 02:45 38.46903 -76.76715 12998 ft 396 kts 151°
2026-05-08 02:46 38.44596 -76.74661 13017 ft 413 kts 151°
2026-05-08 02:46 38.42233 -76.72583 13010 ft 420 kts 154°
2026-05-08 02:46 38.39614 -76.71142 13006 ft 403 kts 174°
2026-05-08 02:46 38.36865 -76.70653 13239 ft 400 kts 180°
2026-05-08 02:47 38.34061 -76.70252 13190 ft 414 kts 180°
2026-05-08 02:47 38.31228 -76.69818 13155 ft 400 kts 179°
2026-05-08 02:47 38.28530 -76.69382 13145 ft 382 kts 180°
2026-05-08 02:47 38.25950 -76.68959 13125 ft 367 kts 180°
2026-05-08 02:48 38.23419 -76.68553 13140 ft 371 kts 180°
2026-05-08 02:48 38.20801 -76.68144 13383 ft 386 kts 180°
2026-05-08 02:48 38.18108 -76.67715 13854 ft 393 kts 180°
2026-05-08 02:48 38.15403 -76.67279 13985 ft 401 kts 180°
2026-05-08 02:49 38.12623 -76.66829 13988 ft 402 kts 180°
2026-05-08 02:49 38.09858 -76.66399 13992 ft 399 kts 182°
2026-05-08 02:49 38.07109 -76.66357 13996 ft 393 kts 189°
2026-05-08 02:49 38.04387 -76.66594 14001 ft 391 kts 191°
2026-05-08 02:50 38.01675 -76.66887 13996 ft 391 kts 191°
2026-05-08 02:50 37.98960 -76.67160 14018 ft 392 kts 191°
2026-05-08 02:50 37.96238 -76.67396 14024 ft 392 kts 190°
2026-05-08 02:50 37.93509 -76.67604 14020 ft 393 kts 190°
2026-05-08 02:51 37.90779 -76.67801 14018 ft 393 kts 190°
2026-05-08 02:51 37.88079 -76.67904 14019 ft 398 kts 183°
2026-05-08 02:51 37.85343 -76.67037 14034 ft 415 kts 163°
2026-05-08 02:51 37.82858 -76.65076 14022 ft 429 kts 144°
2026-05-08 02:52 37.80822 -76.62382 14029 ft 416 kts 138°
2026-05-08 02:52 37.78934 -76.59693 14002 ft 402 kts 138°
2026-05-08 02:52 37.77074 -76.57081 14011 ft 399 kts 139°
2026-05-08 02:52 37.75195 -76.54493 13998 ft 400 kts 139°
2026-05-08 02:53 37.73302 -76.51908 13613 ft 401 kts 139°
2026-05-08 02:53 37.71416 -76.49335 13154 ft 397 kts 139°
2026-05-08 02:53 37.69552 -76.46789 12653 ft 393 kts 139°
2026-05-08 02:53 37.67729 -76.44300 12168 ft 389 kts 139°
2026-05-08 02:54 37.65900 -76.41806 11688 ft 385 kts 140°
2026-05-08 02:54 37.63871 -76.39757 11448 ft 361 kts 160°
2026-05-08 02:54 37.61582 -76.38827 11432 ft 339 kts 182°
2026-05-08 02:54 37.59242 -76.38957 11383 ft 338 kts 196°
2026-05-08 02:55 37.56915 -76.39486 11081 ft 339 kts 198°
2026-05-08 02:55 37.52430 -76.40638 10739 ft 317 kts 199°
2026-05-08 02:55 37.50310 -76.41175 10602 ft 305 kts 199°
2026-05-08 02:56 37.48289 -76.41678 10466 ft 295 kts 199°
2026-05-08 02:56 37.46310 -76.42160 10339 ft 285 kts 199°
2026-05-08 02:56 37.44389 -76.42619 10210 ft 276 kts 199°
2026-05-08 02:56 37.42529 -76.43053 10063 ft 268 kts 199°
2026-05-08 02:57 37.40702 -76.43471 9775 ft 266 kts 199°
2026-05-08 02:57 37.38875 -76.43894 9355 ft 269 kts 199°
2026-05-08 02:57 37.37026 -76.44340 8936 ft 271 kts 199°
2026-05-08 02:57 37.35172 -76.44813 8534 ft 273 kts 199°
2026-05-08 02:58 37.33308 -76.45313 8122 ft 275 kts 199°
2026-05-08 02:58 37.31436 -76.45839 7747 ft 277 kts 199°
2026-05-08 02:58 37.29581 -76.46383 7377 ft 279 kts 199°
2026-05-08 02:58 37.27689 -76.46961 6999 ft 281 kts 199°
2026-05-08 02:59 37.25787 -76.47566 6635 ft 283 kts 199°
2026-05-08 02:59 37.23878 -76.48195 6269 ft 284 kts 199°
2026-05-08 02:59 37.21968 -76.48843 5933 ft 285 kts 199°
2026-05-08 02:59 37.20061 -76.49502 5642 ft 283 kts 199°
2026-05-08 03:00 37.18168 -76.50170 5335 ft 283 kts 199°
2026-05-08 03:00 37.16891 -76.50626 5124 ft 282 kts 199°
2026-05-08 03:00 37.15067 -76.51285 5031 ft 273 kts 199°
2026-05-08 03:00 37.13296 -76.51928 4953 ft 264 kts 199°
2026-05-08 03:01 37.11560 -76.52557 4877 ft 255 kts 199°
2026-05-08 03:01 37.09884 -76.53163 4799 ft 246 kts 199°
2026-05-08 03:01 37.08260 -76.53750 4671 ft 240 kts 199°
2026-05-08 03:01 37.06662 -76.54331 4433 ft 238 kts 199°
2026-05-08 03:02 37.05075 -76.54914 4207 ft 237 kts 199°
2026-05-08 03:02 37.03495 -76.55501 3960 ft 236 kts 199°
2026-05-08 03:02 37.01925 -76.56092 3715 ft 235 kts 199°
2026-05-08 03:02 37.00383 -76.56679 3484 ft 234 kts 199°
2026-05-08 03:03 36.98829 -76.57278 3258 ft 233 kts 199°
2026-05-08 03:03 36.97284 -76.57881 3075 ft 232 kts 199°
2026-05-08 03:03 36.95743 -76.58490 3031 ft 233 kts 199°
2026-05-08 03:03 36.94198 -76.59103 3008 ft 232 kts 199°
2026-05-08 03:04 36.92660 -76.59714 3006 ft 231 kts 199°
2026-05-08 03:04 36.91086 -76.60061 2993 ft 231 kts 176°
2026-05-08 03:04 36.89490 -76.59779 3032 ft 234 kts 170°
2026-05-08 03:04 36.87881 -76.59414 3033 ft 237 kts 169°
2026-05-08 03:05 36.86278 -76.59044 3021 ft 238 kts 169°
2026-05-08 03:05 36.84647 -76.58664 3021 ft 239 kts 169°
2026-05-08 03:05 36.83028 -76.58285 3044 ft 233 kts 169°
2026-05-08 03:05 36.81485 -76.57924 3005 ft 217 kts 169°
2026-05-08 03:06 36.80105 -76.57387 2994 ft 203 kts 145°
2026-05-08 03:06 36.79011 -76.56318 3022 ft 200 kts 139°
2026-05-08 03:06 36.77944 -76.55250 3005 ft 194 kts 139°
2026-05-08 03:06 36.76898 -76.54209 3003 ft 191 kts 139°
2026-05-08 03:07 36.75857 -76.53173 3016 ft 192 kts 139°
2026-05-08 03:07 36.74822 -76.52143 3023 ft 193 kts 139°
2026-05-08 03:07 36.73769 -76.51094 3032 ft 194 kts 139°
2026-05-08 03:07 36.72710 -76.50037 3025 ft 196 kts 139°
2026-05-08 03:08 36.71644 -76.48974 3025 ft 196 kts 139°
2026-05-08 03:08 36.70578 -76.47910 3019 ft 196 kts 139°
2026-05-08 03:08 36.69516 -76.46850 3014 ft 195 kts 139°
2026-05-08 03:08 36.68679 -76.45575 2994 ft 187 kts 105°
2026-05-08 03:09 36.68633 -76.44037 3020 ft 175 kts 72°
2026-05-08 03:09 36.68949 -76.42582 3019 ft 179 kts 70°
2026-05-08 03:09 36.69298 -76.41086 3035 ft 181 kts 69°
2026-05-08 03:09 36.69706 -76.39622 3000 ft 176 kts 54°
2026-05-08 03:10 36.70525 -76.38573 3037 ft 168 kts 38°
2026-05-08 03:10 36.71403 -76.37608 3023 ft 168 kts 37°
2026-05-08 03:10 36.72303 -76.36674 3024 ft 168 kts 36°
2026-05-08 03:10 36.73221 -76.35759 3046 ft 170 kts 35°
2026-05-08 03:11 36.74163 -76.34835 3026 ft 175 kts 34°
2026-05-08 03:11 36.75113 -76.33909 3022 ft 173 kts 34°
2026-05-08 03:11 36.76032 -76.33014 3043 ft 163 kts 34°
2026-05-08 03:11 36.76906 -76.32165 2979 ft 156 kts 35°
2026-05-08 03:12 36.77745 -76.31350 2830 ft 150 kts 34°
2026-05-08 03:12 36.78580 -76.30541 2617 ft 152 kts 34°
2026-05-08 03:12 36.79417 -76.29730 2410 ft 152 kts 35°
2026-05-08 03:12 36.80249 -76.28921 2182 ft 151 kts 34°
2026-05-08 03:13 36.81074 -76.28121 1968 ft 150 kts 35°
2026-05-08 03:13 36.81892 -76.27326 1766 ft 148 kts 35°
2026-05-08 03:13 36.82702 -76.26551 1590 ft 151 kts 36°
2026-05-08 03:13 36.83539 -76.25724 1268 ft 156 kts 36°
2026-05-08 03:14 36.84380 -76.24887 1018 ft 151 kts 36°
2026-05-08 03:14 36.85204 -76.24083 906 ft 143 kts 35°
2026-05-08 03:14 36.86024 -76.23303 779 ft 153 kts 36°
2026-05-08 03:14 36.86873 -76.22482 479 ft 156 kts 37°
2026-05-08 03:15 36.87725 -76.21661 297 ft 154 kts 37°
2026-05-08 03:15 36.88575 -76.20842 83 ft 155 kts 37°
2026-05-08 03:15 36.89377 -76.20067 8 ft 129 kts 38°
2026-05-08 03:15 36.89911 -76.19555 2 ft 67 kts 38°
2026-05-08 03:16 36.90136 -76.19336 2 ft 18 kts 38°
2026-05-08 03:16 36.90176 -76.19299 3 ft 9 kts 28°
2026-05-08 03:16 36.90252 -76.19334 2 ft 14 kts 309°
2026-05-08 03:16 36.90286 -76.19445 2 ft 14 kts 257°
2026-05-08 03:17 36.90220 -76.19502 2 ft 12 kts 202°
2026-05-08 03:17 36.90129 -76.19553 2 ft 16 kts 206°
2026-05-08 03:17 36.90043 -76.19640 2 ft 16 kts 226°
2026-05-08 03:17 36.89988 -76.19697 3 ft 15 kts 216°
2026-05-08 03:18 36.89879 -76.19801 2 ft 14 kts 218°
2026-05-08 03:18 36.89809 -76.19886 2 ft 14 kts 239°
2026-05-08 03:18 36.89758 -76.19989 2 ft 14 kts 251°
2026-05-08 03:18 36.89775 -76.20099 3 ft 6 kts 290°
2026-05-08 03:19 36.89789 -76.20145 2 ft 6 kts 290°
2026-05-08 03:19 36.89809 -76.20185 2 ft 6 kts 333°
2026-05-08 03:19 36.89843 -76.20170 2 ft 6 kts 68°
2026-05-08 03:19 36.89851 -76.20124 3 ft 0 kts 57°
2026-05-08 03:20 36.89852 -76.20123 3 ft 0 kts 56°
2026-05-08 03:20 36.89855 -76.20123 3 ft 0 kts 16°
2026-05-08 03:20 36.89859 -76.20125 3 ft 0 kts 351°
2026-05-08 03:21 36.89867 -76.20165 2 ft 0 kts 12°
2026-05-08 03:21 36.89882 -76.20217 2 ft 0 kts 13°
2026-05-08 03:22 36.89887 -76.20269 3 ft 0 kts